sat.trackr.live / text

‹ back to catalog

STARLINK-2227

NORAD 48575 · 2021-041Y

PAYLOAD ACTIVE UNKNOWN

§ Identity

Operator
Country
US
Launch date
2021-05-15
Launch site
AFETR
Launch vehicle
Mass (kg)
RCS (m²)

Purposes: comms

External: N2YO · Heavens-Above · Gunter

§ Orbital elements

Epoch: 2026-09-15T02:33:17.332704Z

Period
93.89 min
Inclination
53.1580°
Eccentricity
0.0003752
Mean motion
15.33721040 rev/d
Perigee alt
462.2 km
Apogee alt
467.3 km
Semi-major
6,842.9 km
B*
1.1128e-3
RAAN
286.4892°
Arg perigee
47.6300°
Mean anomaly
312.5019°
Rev number
29,485

§ Raw data

STARLINK-22271 48575U 21041Y   26258.10645061  .00036608  00000+0  11128-2 0  99902 48575  53.1580 286.4892 0003752  47.6300 312.5019 15.33721040294854

JSON: /api/v1/satellites/48575 · /tle

For live sub-satellite position, see the globe view (requires WebGL).

§ Visibility from observer

Set your observer location to see the next 7 days of passes ≥ 10°. The values pass through the URL so the page stays shareable.

No JS? Fill the form by hand. The geolocation button needs JavaScript.